Eagle River, WI

3:58 PM CDT on October 18, 2017 (GMT -0500)
Eagle River Union

Weather History for KEGV - October, 2012

Change the Weather History Date:

Wednesday, October 31, 2012

  Actual Average Record
Temperature  
Mean Temperature 30 °F -  
Max Temperature 37 °F 44 °F 66 °F (2000)
Min Temperature 23 °F 30 °F 18 °F (2014)
Degree Days  
Heating Degree Days 35    
Moisture  
Dew Point 23 °F    
Average Humidity 74    
Maximum Humidity 93    
Minimum Humidity 56    
Precipitation  
Precipitation 0.00 in - - ()
Sea Level Pressure  
Sea Level Pressure 29.86 in    
Wind  
Wind Speed 11 mph (NNW)    
Max Wind Speed 20 mph    
Max Gust Speed 24 mph    
Visibility 9 miles    
Events Snow    
Averages and records for this station are not official NWS values.
T = Trace of Precipitation, MM = Missing Value Source: NWS Daily Summary

Daily Weather History Graph

Daily Weather History Graph

Search for Another Location

Airport or City:

Trip Planner

Search our weather history database for the weather conditions in past years. The results will help you decide how hot, cold, wet, or windy it might be!

Date:

Astronomy

Oct. 31, 2012 Rise Set
Actual Time 7:36 AM CDT 5:43 PM CDT
Civil Twilight 7:05 AM CDT 6:15 PM CDT
Nautical Twilight 6:30 AM CDT 6:50 PM CDT
Astronomical Twilight 5:55 AM CDT 7:24 PM CDT
Moon 6:48 PM CDT (10/31) 9:23 AM CDT (10/31)
Length of Visible Light 11h 09m
Length of Day
10h 07m
Full, 97% of the Moon is Illuminated
Oct 31
Full
Nov 6
Last Quarter
Nov 13
New
Nov 20
First Quarter
Nov 28
Full

Hourly Weather History & Observations

Time (CDT) Temp. Windchill Dew Point Humidity Pressure Visibility Wind Dir Wind Speed Gust Speed Precip Events Conditions
12:15 AM 30.2 °F 20.2 °F 21.2 °F 69% 29.91 in 10.0 mi North 12.7 mph 21.9 mph N/A   Clear
12:35 AM 30.2 °F 21.3 °F 21.2 °F 69% 29.91 in 10.0 mi North 10.4 mph 20.7 mph N/A   Clear
12:55 AM 30.2 °F 19.8 °F 21.2 °F 69% 29.90 in 10.0 mi North 13.8 mph 23.0 mph N/A   Clear
1:15 AM 30.2 °F 19.3 °F 21.2 °F 69% 29.90 in 10.0 mi North 15.0 mph 23.0 mph N/A   Clear
1:55 AM 30.2 °F 21.3 °F 23.0 °F 75% 29.89 in 10.0 mi North 10.4 mph 16.1 mph N/A   Scattered Clouds
2:15 AM 30.2 °F 20.2 °F 23.0 °F 75% 29.89 in 10.0 mi North 12.7 mph 20.7 mph N/A   Mostly Cloudy
2:35 AM 30.2 °F 19.3 °F 23.0 °F 75% 29.89 in 10.0 mi North 15.0 mph 19.6 mph N/A   Overcast
2:55 AM 30.2 °F 19.3 °F 24.8 °F 80% 29.89 in 10.0 mi North 15.0 mph 21.9 mph N/A   Overcast
3:15 AM 32.0 °F 23.0 °F 24.8 °F 75% 29.88 in 10.0 mi North 11.5 mph 20.7 mph N/A   Overcast
3:35 AM 32.0 °F 22.1 °F 24.8 °F 75% 29.88 in 10.0 mi North 13.8 mph 20.7 mph N/A   Overcast
3:55 AM 30.2 °F 20.8 °F 26.6 °F 86% 29.88 in 10.0 mi North 11.5 mph - N/A   Overcast
4:15 AM 30.2 °F 18.9 °F 26.6 °F 86% 29.88 in 10.0 mi North 16.1 mph 21.9 mph N/A   Overcast
4:35 AM 30.2 °F 20.2 °F 26.6 °F 86% 29.88 in 10.0 mi North 12.7 mph 17.3 mph N/A   Overcast
4:55 AM 30.2 °F 20.2 °F 26.6 °F 86% 29.88 in 10.0 mi North 12.7 mph 21.9 mph N/A   Overcast
5:15 AM 30.2 °F 19.3 °F 26.6 °F 86% 29.87 in 10.0 mi North 15.0 mph 19.6 mph N/A   Overcast
5:35 AM 30.2 °F 19.8 °F 26.6 °F 86% 29.87 in 10.0 mi NNW 13.8 mph 20.7 mph N/A   Overcast
5:55 AM 32.0 °F 23.0 °F 26.6 °F 80% 29.88 in 10.0 mi North 11.5 mph 19.6 mph N/A   Overcast
6:15 AM 32.0 °F 21.2 °F 26.6 °F 80% 29.88 in 10.0 mi North 16.1 mph 20.7 mph N/A   Overcast
6:35 AM 30.2 °F 17.8 °F 26.6 °F 86% 29.88 in 10.0 mi NNW 19.6 mph 24.2 mph N/A   Overcast
6:55 AM 30.2 °F 19.8 °F 26.6 °F 86% 29.88 in 4.0 mi North 13.8 mph 20.7 mph N/A Snow Light Snow
7:15 AM 30.2 °F 20.8 °F 26.6 °F 86% 29.88 in 2.5 mi NNW 11.5 mph - N/A Snow Light Snow
7:35 AM 30.2 °F 20.8 °F 26.6 °F 86% 29.87 in 4.0 mi North 11.5 mph 18.4 mph N/A Snow Light Snow
7:55 AM 30.2 °F 19.8 °F 26.6 °F 86% 29.87 in 10.0 mi North 13.8 mph 20.7 mph N/A   Overcast
8:15 AM 30.2 °F 21.3 °F 26.6 °F 86% 29.88 in 5.0 mi North 10.4 mph 16.1 mph N/A   Overcast
8:35 AM 32.0 °F 24.2 °F 26.6 °F 80% 29.88 in 10.0 mi North 9.2 mph 21.9 mph N/A   Overcast
8:55 AM 32.0 °F 23.6 °F 26.6 °F 80% 29.87 in 7.0 mi North 10.4 mph - N/A   Overcast
9:15 AM 32.0 °F 24.2 °F 30.2 °F 93% 29.87 in 1.8 mi North 9.2 mph - N/A Snow Light Snow
9:35 AM 32.0 °F 22.1 °F 26.6 °F 80% 29.87 in 7.0 mi NNW 13.8 mph 20.7 mph N/A   Overcast
9:55 AM 32.0 °F 21.6 °F 26.6 °F 80% 29.87 in 10.0 mi North 15.0 mph 19.6 mph N/A   Overcast
10:15 AM 32.0 °F 22.5 °F 26.6 °F 80% 29.87 in 10.0 mi North 12.7 mph - N/A   Overcast
10:35 AM 32.0 °F 23.0 °F 26.6 °F 80% 29.87 in 10.0 mi North 11.5 mph 20.7 mph N/A   Overcast
10:55 AM 32.0 °F 22.1 °F 26.6 °F 80% 29.88 in 10.0 mi NNW 13.8 mph 19.6 mph N/A   Overcast
11:15 AM 32.0 °F 21.2 °F 26.6 °F 80% 29.87 in 10.0 mi NNW 16.1 mph 23.0 mph N/A   Overcast
11:35 AM 32.0 °F 21.6 °F 26.6 °F 80% 29.87 in 10.0 mi NNW 15.0 mph 20.7 mph N/A   Overcast
11:55 AM 32.0 °F 22.5 °F 26.6 °F 80% 29.87 in 10.0 mi NNW 12.7 mph 17.3 mph N/A   Overcast
12:15 PM 33.8 °F 25.3 °F 26.6 °F 75% 29.86 in 10.0 mi NW 11.5 mph - N/A   Overcast
12:35 PM 33.8 °F 24.8 °F 26.6 °F 75% 29.86 in 10.0 mi NW 12.7 mph 18.4 mph N/A   Overcast
12:55 PM 33.8 °F 24.3 °F 28.4 °F 81% 29.86 in 10.0 mi NNW 13.8 mph 18.4 mph N/A   Overcast
1:15 PM 33.8 °F 24.8 °F 26.6 °F 75% 29.86 in 10.0 mi NNW 12.7 mph - N/A   Overcast
1:35 PM 33.8 °F 25.8 °F 28.4 °F 81% 29.85 in 10.0 mi North 10.4 mph - N/A   Overcast
1:55 PM 33.8 °F 24.8 °F 28.4 °F 81% 29.84 in 10.0 mi North 12.7 mph 20.7 mph N/A   Overcast
2:15 PM 33.8 °F 27.0 °F 28.4 °F 81% 29.83 in 10.0 mi NNW 8.1 mph - N/A   Overcast
2:35 PM 35.6 °F 27.1 °F 26.6 °F 70% 29.83 in 10.0 mi North 12.7 mph 17.3 mph N/A   Overcast
2:55 PM 35.6 °F 28.6 °F 26.6 °F 70% 29.83 in 10.0 mi North 9.2 mph - N/A   Mostly Cloudy
3:35 PM 35.6 °F 28.6 °F 26.6 °F 70% 29.82 in 10.0 mi NNW 9.2 mph - N/A   Scattered Clouds
3:55 PM 37.4 °F 29.3 °F 23.0 °F 56% 29.82 in 10.0 mi NW 12.7 mph - N/A   Clear
4:15 PM 35.6 °F 28.0 °F 23.0 °F 60% 29.82 in 10.0 mi North 10.4 mph - N/A   Clear
4:35 PM 35.6 °F 29.2 °F 23.0 °F 60% 29.82 in 10.0 mi NNW 8.1 mph - N/A   Clear
4:55 PM 35.6 °F 28.6 °F 23.0 °F 60% 29.83 in 10.0 mi NNW 9.2 mph - N/A   Clear
5:15 PM 33.8 °F 27.0 °F 23.0 °F 65% 29.83 in 10.0 mi NNW 8.1 mph - N/A   Clear
5:35 PM 33.8 °F 29.6 °F 23.0 °F 65% 29.83 in 10.0 mi NNW 4.6 mph - N/A   Clear
5:55 PM 32.0 °F 24.8 °F 19.4 °F 60% 29.83 in 10.0 mi NNW 8.1 mph - N/A   Clear
6:15 PM 32.0 °F 27.5 °F 19.4 °F 60% 29.84 in 10.0 mi NNW 4.6 mph - N/A   Clear
6:35 PM 32.0 °F 24.2 °F 19.4 °F 60% 29.84 in 10.0 mi NNW 9.2 mph - N/A   Clear
6:55 PM 30.2 °F 25.4 °F 19.4 °F 64% 29.84 in 10.0 mi NNW 4.6 mph - N/A   Clear
7:15 PM 30.2 °F 24.3 °F 19.4 °F 64% 29.84 in 10.0 mi NW 5.8 mph - N/A   Clear
7:35 PM 30.2 °F 25.4 °F 19.4 °F 64% 29.84 in 10.0 mi NW 4.6 mph - N/A   Clear
7:55 PM 30.2 °F 23.4 °F 19.4 °F 64% 29.84 in 10.0 mi NW 6.9 mph - N/A   Clear
8:15 PM 28.4 °F 23.3 °F 17.6 °F 64% 29.83 in 10.0 mi NW 4.6 mph - N/A   Clear
8:35 PM 28.4 °F 23.3 °F 17.6 °F 64% 29.83 in 10.0 mi NW 4.6 mph - N/A   Clear
8:55 PM 28.4 °F 22.2 °F 17.6 °F 64% 29.83 in 10.0 mi NW 5.8 mph - N/A   Clear
9:15 PM 28.4 °F 23.3 °F 17.6 °F 64% 29.83 in 10.0 mi NW 4.6 mph - N/A   Clear
9:35 PM 28.4 °F 23.3 °F 17.6 °F 64% 29.83 in 10.0 mi NW 4.6 mph - N/A   Clear
9:55 PM 28.4 °F - 15.8 °F 59% 29.82 in 10.0 mi Calm Calm - N/A   Clear
10:15 PM 24.8 °F - 17.6 °F 74% 29.82 in 10.0 mi Calm Calm - N/A   Clear
10:35 PM 26.6 °F - 17.6 °F 69% 29.82 in 10.0 mi Calm Calm - N/A   Clear
10:55 PM 23.0 °F 18.4 °F 15.8 °F 74% 29.82 in 10.0 mi West 3.5 mph - N/A   Clear
11:15 PM 26.6 °F - 15.8 °F 64% 29.81 in 10.0 mi Calm Calm - N/A   Clear
11:35 PM 26.6 °F - 15.8 °F 64% 29.81 in 10.0 mi Calm Calm - N/A   Clear
11:55 PM 26.6 °F - 14.0 °F 59% 29.81 in 10.0 mi Calm Calm - N/A   Clear